CZ-4 DEB, 26187

Orbit data source: Space-Track

CZ-4 DEB, 26187 is space debris in SSO originally from a launch on Thu, 14 Oct 1999 UTC launched from the Taiyaun Space Center, China (TSC). Debris objects in space refer to the collection of defunct objects orbiting the Earth. Examples of debris include non-operational satellites, rocket bodies, and fragments generated from explosions, collisions, or faulty payload assembly.

Loading next visibility...
Identifier
26187, 1999-057BZ
Orbit
SSO
Country
Flag of CNCN / PRC
Related business
Manufacturer
Unknown
Mission
Spacecraft
Bus & Motor
Unknown
Mass
Unknown
Launch date (UTC)
1999-10-14 (26 years ago)
Launch vehicle
Unknown
Launch site
Taiyaun Space Center, China (TSC)
Object type
Payload
Rocket body
Debris
Shape & HBR
Unknown shape, 0.2 m
Radar Cross Section
Small (<0.1 m²)

Expand to show TLE details & history
Last TLE update: 9 hours ago

TLE from 9 hours ago
0 CZ-4 DEB
1 26187U 99057BZ  25293.05858074  .00005208  00000-0  54792-3 0  9997
2 26187  98.5878 337.5835 0047385  21.5111 338.8080 14.89082853378650
Epoch: 2025-10-20T01:24Z
TLE epoch observation values (Epoch: 2025-10-20T01:24:21.375Z)
Latitude
-0.00012°
Longitude
-72.27188°
Altitude
572.993 km
Speed
7.591 km/s
True Right ascension
22h 30m 20s
True Declination
0° 00' 00"
Sunlit
Object was in full shadow at epoch
Visualization orbit readout
Latitude
Unknown
Longitude
Unknown
Altitude
Unknown
Speed
Unknown
Apparent Right ascension
Unknown
Apparent Declination
Unknown
Sunlit
N/A
Visualization observer readout
Local Sidereal Time
05:17:28
Azimuth
Unknown
Elevation
Unknown
Doppler factor
Unknown
Orbital elements
Apogee altitude
630.916 km
Perigee altitude
564.805 km
Semi-major axis
6,975.998 km
Eccentricity
0.00474
Inclination
98.5878°
RAAN
337.5835°
Arg. of periapsis
21.5111°
True anomaly
338.61062°
Mean anomaly
338.808°
Eccentric anomaly
338.70942°
Mean motion
3.72506 °/min
Orbital period
96.64 mins
BSTAR
0.00054792
Loading maneuver chart data...
Computing Atmospheric mass density...

Documentation

Showing up to 5 results
|